FW1788 Weather Reports


time (UTC)temp
C
wind
direction
speed
KPH
gust
KPH
rain 1hr
cm
rain 24hr
cm
rain mn
cm
humidity
%
barometer
mb
20260508001542 9 157 0.0 0.0 0.03 2.67 2.67 98 1002.5
20260508000043 9 157 0.0 0.0 0.03 2.67 2.67 98 1002.4
20260507234539 9 157 0.0 0.0 0.00 2.64 2.64 98 1002.6
20260507233038 9 157 0.0 1.6 0.00 2.64 2.64 98 1002.5
20260507231540 9 135 0.0 0.0 0.00 2.64 2.64 98 1002.5
20260507230040 9 135 0.0 0.0 0.00 2.64 2.64 98 1002.3
20260507224547 9 135 0.0 0.0 0.00 2.64 2.64 98 1002.4
20260507223034 9 115 0.0 3.2 0.00 2.64 2.64 98 1002.4
20260507221533 10 123 0.0 3.2 0.00 2.64 2.64 98 1002.5
20260507220031 10 92 0.0 1.6 0.00 2.64 2.64 98 1002.7
20260507214530 10 104 0.0 0.0 0.00 2.64 2.64 98 1002.8
20260507213030 10 84 0.0 3.2 0.00 2.64 2.64 98 1003.0
20260507211528 10 116 0.0 0.0 0.05 2.64 2.64 98 1002.6
20260507210031 10 215 0.0 1.6 0.05 2.64 2.64 98 1002.8
20260507204527 10 206 0.0 4.8 0.15 2.64 2.64 98 1002.3
20260507203025 10 241 0.0 4.8 0.30 2.64 2.64 98 1002.5
20260507201527 10 202 0.0 3.2 0.48 2.59 2.59 98 1002.7
20260507200022 10 240 0.0 1.6 0.66 2.59 2.59 98 1003.3
20260507194524 10 111 0.0 4.8 0.71 2.49 2.49 98 1002.9
20260507193020 10 149 0.0 3.2 0.81 2.34 2.34 98 1004.0
20260507191519 10 121 0.0 0.0 0.84 2.11 2.11 98 1004.6
20260507190020 10 136 0.0 0.0 0.84 1.93 1.93 98 1004.6
20260507184519 10 136 0.0 0.0 1.14 1.75 1.75 98 1004.5
20260507183015 10 136 0.0 1.6 1.17 1.52 1.52 98 1004.8
20260507181514 9 157 0.0 3.2 1.04 1.27 1.27 98 1005.1
20260507180015 9 109 0.0 3.2 0.89 1.07 1.07 97 1005.4
20260507174512 10 118 0.0 11.3 0.46 0.61 0.61 97 1005.5
20260507173011 10 208 0.0 8.0 0.20 0.33 0.33 97 1004.7
20260507171510 10 122 3.2 11.3 0.10 0.23 0.23 97 1004.9
20260507170008 10 186 1.6 11.3 0.05 0.15 0.15 97 1005.2
20260507164506 10 194 0.0 6.4 0.03 0.15 0.15 97 1005.5
20260507163002 10 201 0.0 6.4 0.03 0.15 0.15 97 1006.2
20260507161603 10 155 0.0 6.4 0.03 0.15 0.15 97 1006.6
20260507160108 10 139 0.0 8.0 0.00 0.13 0.13 97 1007.2
20260507154556 10 271 0.0 6.4 0.00 0.13 0.13 96 1007.3
20260507153059 10 133 0.0 6.4 0.00 0.13 0.13 97 1007.6
20260507151552 10 156 0.0 16.1 0.00 0.13 0.13 97 1008.0
20260507150051 10 190 0.0 4.8 0.00 0.13 0.13 97 1008.4
20260507144549 11 158 0.0 8.0 0.00 0.13 0.13 97 1008.5
20260507143048 11 200 1.6 12.9 0.00 0.13 0.13 97 1008.6
20260507141544 11 126 1.6 12.9 0.00 0.13 0.13 97 1009.1
20260507140059 11 193 1.6 12.9 0.00 0.13 0.13 98 1009.3
20260507134541 11 184 3.2 14.5 0.00 0.13 0.13 98 1009.4
20260507133039 11 154 1.6 11.3 0.00 0.13 0.13 98 1009.2
20260507131542 11 215 0.0 12.9 0.00 0.13 0.13 98 1009.6
20260507130034 10 148 0.0 12.9 0.00 0.13 0.13 98 1009.8
20260507124534 10 164 3.2 12.9 0.00 0.13 0.13 98 1010.0
20260507123031 10 198 0.0 6.4 0.00 0.13 0.13 98 1009.8
20260507121529 10 225 0.0 9.7 0.00 0.13 0.13 98 1010.1
20260507120026 10 176 1.6 9.7 0.03 0.13 0.13 98 1010.2
20260507114524 10 200 0.0 9.7 0.03 0.13 0.13 98 1010.6
20260507113023 10 186 0.0 4.8 0.05 0.13 0.13 97 1010.9
20260507111521 10 160 0.0 6.4 0.05 0.13 0.13 98 1011.2
20260507110021 10 145 3.2 12.9 0.08 0.10 0.10 98 1011.3
20260507104526 10 200 1.6 11.3 0.10 0.10 0.10 98 1010.9
20260507103023 10 228 1.6 6.4 0.08 0.08 0.08 98 1011.2
20260507101531 10 189 0.0 4.8 0.08 0.08 0.08 98 1011.4
20260507100026 10 199 0.0 4.8 0.03 0.03 0.03 98 1011.7
20260507094514 9 212 3.2 8.0 0.00 0.00 0.00 97 1011.9
20260507093015 9 229 0.0 4.8 0.00 0.00 0.00 97 1011.7
20260507091530 9 50 0.0 9.7 0.00 0.00 0.00 97 1011.9
20260507090010 9 225 1.6 8.0 0.00 0.00 0.00 97 1012.2
20260507084509 9 176 0.0 12.9 0.00 0.00 0.00 97 1012.2
20260507083011 9 227 0.0 3.2 0.00 0.00 0.00 97 1012.2
20260507081507 9 212 1.6 11.3 0.00 0.00 0.00 97 1012.0
20260507080007 9 226 0.0 4.8 0.00 0.00 0.00 97 1011.9
20260507074508 9 226 0.0 1.6 0.00 0.00 0.00 97 1012.5
20260507073002 9 234 0.0 4.8 0.00 0.00 0.00 97 1012.8
20260507071601 9 223 0.0 6.4 0.00 0.00 0.00 96 1013.1
20260507070137 9 253 0.0 4.8 0.00 0.00 0.00 96 1013.3
20260507064555 9 229 0.0 4.8 0.00 0.00 0.00 96 1013.3
20260507063057 9 244 0.0 11.3 0.00 0.00 0.00 96 1013.9
20260507061551 9 200 0.0 1.6 0.00 0.00 0.00 96 1013.3
20260507060048 9 200 0.0 4.8 0.00 0.00 0.00 96 1014.0
20260507054551 10 190 0.0 1.6 0.00 0.00 0.00 95 1014.2
20260507053045 10 192 0.0 1.6 0.00 0.00 0.00 95 1014.6
20260507051542 10 219 0.0 3.2 0.00 0.00 0.00 95 1014.9
20260507050038 10 153 0.0 0.0 0.00 0.00 0.00 95 1015.4
20260507044544 10 87 0.0 4.8 0.00 0.00 0.00 95 1015.9
20260507043038 10 129 0.0 1.6 0.00 0.00 0.00 94 1016.2
20260507041531 10 142 0.0 3.2 0.00 0.00 0.00 94 1016.4
20260507040030 10 203 0.0 0.0 0.00 0.00 0.00 94 1017.0
20260507034627 10 208 0.0 1.6 0.00 0.00 0.00 94 1017.1
20260507033026 10 85 0.0 1.6 0.00 0.00 0.00 94 1017.4
20260507031521 10 209 0.0 0.0 0.00 0.00 0.00 94 1017.5
20260507030018 9 210 0.0 0.0 0.00 0.00 0.00 93 1017.7
20260507024518 10 210 0.0 0.0 0.00 0.00 0.00 92 1017.8
20260507023018 10 210 0.0 0.0 0.00 0.00 0.00 92 1017.8
20260507021517 10 209 0.0 3.2 0.00 0.00 0.00 92 1018.0
20260507020017 10 191 0.0 1.6 0.00 0.00 0.00 91 1018.2
20260507014516 10 162 0.0 4.8 0.00 0.00 0.00 91 1018.2
20260507013016 10 124 0.0 0.0 0.00 0.00 0.00 90 1018.3
20260507011515 11 99 0.0 6.4 0.00 0.00 0.00 89 1018.3
20260507010014 11 163 0.0 9.7 0.00 0.00 0.00 88 1018.5
20260507004514 11 116 0.0 4.8 0.00 0.00 0.00 88 1018.4
20260507003014 11 173 0.0 11.3 0.00 0.00 0.00 87 1018.4